Time,TemperatureF,DewpointF,PressureIn,WindDirection,WindDirectionDegrees,WindSpeedMPH,WindSpeedGustMPH,Humidity,HourlyPrecipIn,Conditions,Clouds,dailyrainin,SoftwareType,DateUTC
2013-07-19 00:02:00,81.4,72.7,29.66,SW,223,3.0,13.0,75,0.00,,---,0.00,VWS V13.01,2013-07-19 05:02:00,
2013-07-19 00:07:00,81.4,72.3,29.66,SSW,206,4.0,10.0,74,0.00,,---,0.00,VWS V13.01,2013-07-19 05:07:00,
2013-07-19 00:12:00,81.4,72.3,29.66,SW,229,0.0,10.0,74,0.00,,---,0.00,VWS V13.01,2013-07-19 05:12:00,
2013-07-19 00:17:00,81.5,72.4,29.66,SSW,195,0.0,11.0,74,0.00,,---,0.00,VWS V13.01,2013-07-19 05:17:00,
2013-07-19 00:22:00,81.4,72.3,29.66,South,185,12.0,12.0,74,0.00,,---,0.00,VWS V13.01,2013-07-19 05:22:00,
2013-07-19 00:27:00,81.4,72.3,29.66,SSW,194,4.0,13.0,74,0.00,,---,0.00,VWS V13.01,2013-07-19 05:27:00,
2013-07-19 00:32:00,81.4,72.3,29.65,WSW,246,5.0,13.0,74,0.00,,---,0.00,VWS V13.01,2013-07-19 05:32:00,
2013-07-19 00:37:00,81.3,72.2,29.66,SW,225,6.0,9.0,74,0.00,,---,0.00,VWS V13.01,2013-07-19 05:37:00,
2013-07-19 00:42:00,81.4,72.3,29.66,SSW,202,5.0,14.0,74,0.00,,---,0.00,VWS V13.01,2013-07-19 05:42:00,
2013-07-19 00:47:00,81.5,72.4,29.65,South,182,1.0,14.0,74,0.00,,---,0.00,VWS V13.01,2013-07-19 05:47:00,
2013-07-19 00:52:00,81.5,72.4,29.65,SSW,200,1.0,15.0,74,0.00,,---,0.00,VWS V13.01,2013-07-19 05:52:00,
2013-07-19 00:57:00,81.4,72.3,29.65,West,279,9.0,15.0,74,0.00,,---,0.00,VWS V13.01,2013-07-19 05:57:00,
2013-07-19 01:02:00,81.4,72.3,29.65,SW,217,3.0,15.0,74,0.00,,---,0.00,VWS V13.01,2013-07-19 06:02:00,
2013-07-19 01:07:00,81.4,72.3,29.65,SW,232,5.0,11.0,74,0.00,,---,0.00,VWS V13.01,2013-07-19 06:07:00,
2013-07-19 01:12:00,81.4,72.3,29.65,NW,325,4.0,11.0,74,0.00,,---,0.00,VWS V13.01,2013-07-19 06:12:00,
2013-07-19 01:17:00,81.4,72.3,29.65,South,178,2.0,13.0,74,0.00,,---,0.00,VWS V13.01,2013-07-19 06:17:00,
2013-07-19 01:22:00,81.3,72.2,29.65,West,260,6.0,13.0,74,0.00,,---,0.00,VWS V13.01,2013-07-19 06:22:00,
2013-07-19 01:27:00,81.2,72.5,29.65,WSW,257,2.0,13.0,75,0.00,,---,0.00,VWS V13.01,2013-07-19 06:27:00,
2013-07-19 01:32:00,81.2,72.5,29.65,South,186,3.0,13.0,75,0.00,,---,0.00,VWS V13.01,2013-07-19 06:32:00,
2013-07-19 01:37:00,81.2,72.1,29.65,SW,225,4.0,10.0,74,0.00,,---,0.00,VWS V13.01,2013-07-19 06:37:00,
2013-07-19 01:42:00,81.2,72.5,29.65,WSW,248,2.0,11.0,75,0.00,,---,0.00,VWS V13.01,2013-07-19 06:42:00,
2013-07-19 01:47:00,81.1,72.4,29.65,SW,225,2.0,11.0,75,0.00,,---,0.00,VWS V13.01,2013-07-19 06:47:00,
2013-07-19 01:52:00,81.1,72.4,29.65,SSE,153,9.0,16.0,75,0.00,,---,0.00,VWS V13.01,2013-07-19 06:52:00,
2013-07-19 01:57:00,81.2,72.5,29.65,SW,222,4.0,16.0,75,0.00,,---,0.00,VWS V13.01,2013-07-19 06:57:00,
2013-07-19 02:02:00,81.1,72.4,29.65,WSW,238,6.0,16.0,75,0.00,,---,0.00,VWS V13.01,2013-07-19 07:02:00,
2013-07-19 02:07:00,80.9,72.2,29.65,South,189,0.0,11.0,75,0.00,,---,0.00,VWS V13.01,2013-07-19 07:07:00,
2013-07-19 02:12:00,80.6,72.3,29.64,SSW,200,5.0,13.0,76,0.00,,---,0.00,VWS V13.01,2013-07-19 07:12:00,
2013-07-19 02:17:00,80.5,72.2,29.65,WSW,242,1.0,13.0,76,0.00,,---,0.00,VWS V13.01,2013-07-19 07:17:00,
2013-07-19 02:22:00,80.3,72.4,29.64,WSW,237,10.0,12.0,77,0.00,,---,0.00,VWS V13.01,2013-07-19 07:22:00,
2013-07-19 02:27:00,80.3,72.4,29.64,SSW,200,0.0,14.0,77,0.00,,---,0.00,VWS V13.01,2013-07-19 07:27:00,
2013-07-19 02:32:00,80.2,72.3,29.64,SW,232,6.0,14.0,77,0.00,,---,0.00,VWS V13.01,2013-07-19 07:32:00,
2013-07-19 02:37:00,80.1,72.2,29.64,SW,233,3.0,13.0,77,0.00,,---,0.00,VWS V13.01,2013-07-19 07:37:00,
2013-07-19 02:42:00,80.0,72.2,29.64,West,263,1.0,13.0,77,0.00,,---,0.00,VWS V13.01,2013-07-19 07:42:00,
2013-07-19 02:47:00,79.8,72.3,29.64,West,259,0.0,13.0,78,0.00,,---,0.00,VWS V13.01,2013-07-19 07:47:00,
2013-07-19 02:52:00,79.6,72.1,29.64,West,267,1.0,7.0,78,0.00,,---,0.00,VWS V13.01,2013-07-19 07:52:00,
2013-07-19 02:57:00,79.4,72.3,29.64,WSW,243,0.0,11.0,79,0.00,,---,0.00,VWS V13.01,2013-07-19 07:57:00,
2013-07-19 03:02:00,79.1,72.0,29.64,WSW,242,0.0,11.0,79,0.00,,---,0.00,VWS V13.01,2013-07-19 08:02:00,
2013-07-19 03:07:00,78.9,72.2,29.64,SW,221,3.0,10.0,80,0.00,,---,0.00,VWS V13.01,2013-07-19 08:07:00,
2013-07-19 03:12:00,78.7,72.0,29.64,SW,235,0.0,10.0,80,0.00,,---,0.00,VWS V13.01,2013-07-19 08:12:00,
2013-07-19 03:17:00,78.6,72.3,29.64,SW,234,3.0,10.0,81,0.00,,---,0.00,VWS V13.01,2013-07-19 08:17:00,
2013-07-19 03:22:00,78.4,72.1,29.64,SW,234,0.0,5.0,81,0.00,,---,0.00,VWS V13.01,2013-07-19 08:22:00,
2013-07-19 03:27:00,78.1,72.2,29.64,WSW,242,3.0,6.0,82,0.00,,---,0.00,VWS V13.01,2013-07-19 08:27:00,
2013-07-19 03:32:00,77.9,72.0,29.64,WSW,238,1.0,6.0,82,0.00,,---,0.00,VWS V13.01,2013-07-19 08:32:00,
2013-07-19 03:37:00,77.7,72.1,29.64,WSW,237,2.0,4.0,83,0.00,,---,0.00,VWS V13.01,2013-07-19 08:37:00,
2013-07-19 03:42:00,77.5,71.9,29.64,WSW,258,0.0,7.0,83,0.00,,---,0.00,VWS V13.01,2013-07-19 08:42:00,
2013-07-19 03:47:00,77.4,72.2,29.64,WSW,257,0.0,7.0,84,0.00,,---,0.00,VWS V13.01,2013-07-19 08:47:00,
2013-07-19 03:52:00,77.3,72.1,29.64,WSW,258,0.0,4.0,84,0.00,,---,0.00,VWS V13.01,2013-07-19 08:52:00,
2013-07-19 03:57:00,77.1,71.9,29.64,West,259,0.0,5.0,84,0.00,,---,0.00,VWS V13.01,2013-07-19 08:57:00,
2013-07-19 04:02:00,76.9,72.1,29.64,West,259,0.0,5.0,85,0.00,,---,0.00,VWS V13.01,2013-07-19 09:02:00,
2013-07-19 04:07:00,76.6,72.1,29.64,West,259,0.0,4.0,86,0.00,,---,0.00,VWS V13.01,2013-07-19 09:07:00,
2013-07-19 04:12:00,76.4,71.9,29.64,West,259,1.0,4.0,86,0.00,,---,0.00,VWS V13.01,2013-07-19 09:12:00,
2013-07-19 04:17:00,76.2,71.7,29.64,West,259,0.0,4.0,86,0.00,,---,0.00,VWS V13.01,2013-07-19 09:17:00,
2013-07-19 04:22:00,75.9,71.8,29.64,West,259,0.0,4.0,87,0.00,,---,0.00,VWS V13.01,2013-07-19 09:22:00,
2013-07-19 04:27:00,75.7,71.6,29.64,West,259,0.0,4.0,87,0.00,,---,0.00,VWS V13.01,2013-07-19 09:27:00,
2013-07-19 04:32:00,75.5,71.7,29.64,West,259,0.0,4.0,88,0.00,,---,0.00,VWS V13.01,2013-07-19 09:32:00,
2013-07-19 04:37:00,75.4,71.6,29.64,West,259,0.0,4.0,88,0.00,,---,0.00,VWS V13.01,2013-07-19 09:37:00,
2013-07-19 04:42:00,75.2,71.4,29.64,West,259,2.0,4.0,88,0.00,,---,0.00,VWS V13.01,2013-07-19 09:42:00,
2013-07-19 04:47:00,75.1,71.6,29.64,West,259,0.0,4.0,89,0.00,,---,0.00,VWS V13.01,2013-07-19 09:47:00,
2013-07-19 04:52:00,75.0,71.5,29.64,West,259,0.0,0.0,89,0.00,,---,0.00,VWS V13.01,2013-07-19 09:52:00,
2013-07-19 04:57:00,74.8,71.7,29.64,West,259,0.0,1.0,90,0.00,,---,0.00,VWS V13.01,2013-07-19 09:57:00,
2013-07-19 05:02:00,74.7,71.6,29.65,West,259,1.0,2.0,90,0.00,,---,0.00,VWS V13.01,2013-07-19 10:02:00,
2013-07-19 05:07:00,74.5,71.4,29.65,West,259,0.0,3.0,90,0.00,,---,0.00,VWS V13.01,2013-07-19 10:07:00,
2013-07-19 05:12:00,74.4,71.6,29.66,West,259,1.0,3.0,91,0.00,,---,0.00,VWS V13.01,2013-07-19 10:12:00,
2013-07-19 05:17:00,74.3,71.5,29.66,West,259,0.0,4.0,91,0.00,,---,0.00,VWS V13.01,2013-07-19 10:17:00,
2013-07-19 05:22:00,74.2,71.4,29.66,West,259,0.0,4.0,91,0.00,,---,0.00,VWS V13.01,2013-07-19 10:22:00,
2013-07-19 05:27:00,74.3,71.5,29.66,WSW,257,0.0,6.0,91,0.00,,---,0.00,VWS V13.01,2013-07-19 10:27:00,
2013-07-19 05:32:00,74.3,71.5,29.66,WSW,257,0.0,6.0,91,0.00,,---,0.00,VWS V13.01,2013-07-19 10:32:00,
2013-07-19 05:37:00,74.2,71.4,29.66,WSW,257,0.0,1.0,91,0.00,,---,0.00,VWS V13.01,2013-07-19 10:37:00,
2013-07-19 05:42:00,74.1,71.3,29.67,WSW,257,0.0,2.0,91,0.00,,---,0.00,VWS V13.01,2013-07-19 10:42:00,
2013-07-19 05:47:00,74.0,71.2,29.67,WSW,257,0.0,2.0,91,0.00,,---,0.00,VWS V13.01,2013-07-19 10:47:00,
2013-07-19 05:52:00,73.8,71.0,29.67,WSW,257,0.0,0.0,91,0.00,,---,0.00,VWS V13.01,2013-07-19 10:52:00,
2013-07-19 05:57:00,73.6,71.1,29.68,WSW,257,0.0,3.0,92,0.00,,---,0.00,VWS V13.01,2013-07-19 10:57:00,
2013-07-19 06:02:00,73.5,71.0,29.68,WSW,257,0.0,3.0,92,0.00,,---,0.00,VWS V13.01,2013-07-19 11:02:00,
2013-07-19 06:07:00,73.4,70.9,29.68,WSW,257,0.0,1.0,92,0.00,,---,0.00,VWS V13.01,2013-07-19 11:07:00,
2013-07-19 06:12:00,73.3,70.8,29.69,WSW,257,0.0,3.0,92,0.00,,---,0.00,VWS V13.01,2013-07-19 11:12:00,
2013-07-19 06:17:00,73.3,70.8,29.69,WSW,257,0.0,0.0,92,0.00,,---,0.00,VWS V13.01,2013-07-19 11:17:00,
2013-07-19 06:22:00,73.3,70.8,29.69,WSW,257,3.0,5.0,92,0.00,,---,0.00,VWS V13.01,2013-07-19 11:22:00,
2013-07-19 06:27:00,73.4,70.9,29.69,WSW,257,0.0,5.0,92,0.00,,---,0.00,VWS V13.01,2013-07-19 11:27:00,
2013-07-19 06:32:00,73.4,70.9,29.69,WSW,257,0.0,0.0,92,0.00,,---,0.00,VWS V13.01,2013-07-19 11:32:00,
2013-07-19 06:37:00,73.4,70.6,29.69,WSW,257,0.0,4.0,91,0.00,,---,0.00,VWS V13.01,2013-07-19 11:37:00,
2013-07-19 06:42:00,73.5,70.7,29.69,WSW,257,0.0,4.0,91,0.00,,---,0.00,VWS V13.01,2013-07-19 11:42:00,
2013-07-19 06:47:00,73.5,70.7,29.70,WSW,257,0.0,1.0,91,0.00,,---,0.00,VWS V13.01,2013-07-19 11:47:00,
2013-07-19 06:52:00,73.6,70.5,29.70,WSW,253,0.0,6.0,90,0.00,,---,0.00,VWS V13.01,2013-07-19 11:52:00,
2013-07-19 06:57:00,73.7,69.6,29.70,West,267,5.0,10.0,87,0.00,,---,0.00,VWS V13.01,2013-07-19 11:57:00,
2013-07-19 07:02:00,73.9,68.8,29.70,West,259,3.0,4.0,84,0.00,,---,0.00,VWS V13.01,2013-07-19 12:02:00,
2013-07-19 07:07:00,74.1,69.0,29.70,WSW,256,2.0,7.0,84,0.00,,---,0.00,VWS V13.01,2013-07-19 12:07:00,
2013-07-19 07:12:00,74.2,68.7,29.70,WSW,243,5.0,10.0,83,0.00,,---,0.00,VWS V13.01,2013-07-19 12:12:00,
2013-07-19 07:17:00,74.4,68.6,29.70,West,261,0.0,0.0,82,0.00,,---,0.00,VWS V13.01,2013-07-19 12:17:00,
2013-07-19 07:22:00,74.5,68.3,29.70,West,281,1.0,9.0,81,0.00,,---,0.00,VWS V13.01,2013-07-19 12:22:00,
2013-07-19 07:27:00,74.5,68.3,29.71,West,276,4.0,10.0,81,0.00,,---,0.00,VWS V13.01,2013-07-19 12:27:00,
2013-07-19 07:32:00,74.5,67.9,29.71,WSW,254,0.0,0.0,80,0.00,,---,0.00,VWS V13.01,2013-07-19 12:32:00,
2013-07-19 07:37:00,74.4,67.1,29.71,West,264,0.0,10.0,78,0.00,,---,0.00,VWS V13.01,2013-07-19 12:37:00,
2013-07-19 07:42:00,74.4,67.1,29.71,WNW,282,3.0,15.0,78,0.00,,---,0.00,VWS V13.01,2013-07-19 12:42:00,
2013-07-19 07:47:00,74.4,66.7,29.71,SW,233,13.0,13.0,77,0.00,,---,0.00,VWS V13.01,2013-07-19 12:47:00,
2013-07-19 07:52:00,74.4,66.3,29.71,NW,326,5.0,13.0,76,0.00,,---,0.00,VWS V13.01,2013-07-19 12:52:00,
2013-07-19 07:57:00,74.4,65.6,29.72,West,264,0.0,13.0,74,0.00,,---,0.00,VWS V13.01,2013-07-19 12:57:00,
2013-07-19 08:02:00,74.5,64.9,29.72,SW,236,1.0,1.0,72,0.00,,---,0.00,VWS V13.01,2013-07-19 13:02:00,
2013-07-19 08:07:00,74.5,65.3,29.73,NW,317,0.0,10.0,73,0.00,,---,0.00,VWS V13.01,2013-07-19 13:07:00,
2013-07-19 08:12:00,74.6,66.2,29.72,SW,220,1.0,12.0,75,0.00,,---,0.00,VWS V13.01,2013-07-19 13:12:00,
2013-07-19 08:17:00,74.6,66.2,29.72,West,262,0.0,2.0,75,0.00,,---,0.00,VWS V13.01,2013-07-19 13:17:00,
2013-07-19 08:22:00,74.5,65.7,29.73,West,265,3.0,7.0,74,0.00,,---,0.00,VWS V13.01,2013-07-19 13:22:00,
2013-07-19 08:26:00,74.6,66.2,29.73,WNW,296,3.0,7.0,75,0.00,,---,0.00,VWS V13.01,2013-07-19 13:26:00,
2013-07-19 08:31:00,74.6,65.8,29.73,West,261,0.0,11.0,74,0.00,,---,0.00,VWS V13.01,2013-07-19 13:31:00,
2013-07-19 08:36:00,74.6,65.4,29.73,WNW,283,5.0,10.0,73,0.00,,---,0.00,VWS V13.01,2013-07-19 13:36:00,
2013-07-19 08:41:00,74.7,66.3,29.73,WNW,294,0.0,11.0,75,0.00,,---,0.00,VWS V13.01,2013-07-19 13:41:00,
2013-07-19 08:46:00,74.8,65.2,29.74,West,263,3.0,12.0,72,0.00,,---,0.00,VWS V13.01,2013-07-19 13:46:00,
2013-07-19 08:51:00,74.8,65.6,29.74,NW,307,1.0,7.0,73,0.00,,---,0.00,VWS V13.01,2013-07-19 13:51:00,
2013-07-19 08:56:00,74.9,64.9,29.74,NNW,337,3.0,13.0,71,0.00,,---,0.00,VWS V13.01,2013-07-19 13:56:00,
2013-07-19 09:01:00,75.0,65.4,29.74,WSW,250,1.0,13.0,72,0.00,,---,0.00,VWS V13.01,2013-07-19 14:01:00,
2013-07-19 09:06:00,75.0,65.4,29.75,NNW,340,2.0,10.0,72,0.00,,---,0.00,VWS V13.01,2013-07-19 14:06:00,
2013-07-19 09:11:00,75.1,65.5,29.75,West,260,0.0,10.0,72,0.00,,---,0.00,VWS V13.01,2013-07-19 14:11:00,
2013-07-19 09:16:00,75.2,66.0,29.75,WNW,300,0.0,10.0,73,0.00,,---,0.00,VWS V13.01,2013-07-19 14:16:00,
2013-07-19 09:21:00,75.4,66.5,29.75,NW,306,3.0,4.0,74,0.00,,---,0.00,VWS V13.01,2013-07-19 14:21:00,
2013-07-19 09:26:00,75.5,65.8,29.75,North,360,6.0,12.0,72,0.00,,---,0.00,VWS V13.01,2013-07-19 14:26:00,
2013-07-19 09:31:00,75.5,65.8,29.75,NW,316,1.0,12.0,72,0.00,,---,0.00,VWS V13.01,2013-07-19 14:31:00,
2013-07-19 09:36:00,75.6,66.3,29.76,West,264,3.0,6.0,73,0.00,,---,0.00,VWS V13.01,2013-07-19 14:36:00,
2013-07-19 09:41:00,75.8,66.9,29.76,NW,304,2.0,6.0,74,0.00,,---,0.00,VWS V13.01,2013-07-19 14:41:00,
2013-07-19 09:46:00,75.8,65.7,29.76,West,281,0.0,12.0,71,0.00,,---,0.00,VWS V13.01,2013-07-19 14:46:00,
2013-07-19 09:51:00,75.6,65.5,29.76,NW,314,4.0,11.0,71,0.00,,---,0.00,VWS V13.01,2013-07-19 14:51:00,
2013-07-19 09:56:00,75.5,65.8,29.76,NNE,19,4.0,11.0,72,0.00,,---,0.00,VWS V13.01,2013-07-19 14:56:00,
2013-07-19 10:01:00,75.5,66.2,29.76,North,360,4.0,11.0,73,0.00,,---,0.00,VWS V13.01,2013-07-19 15:01:00,
2013-07-19 10:06:00,75.5,66.2,29.77,NNE,24,4.0,9.0,73,0.00,,---,0.00,VWS V13.01,2013-07-19 15:06:00,
2013-07-19 10:11:00,75.5,66.2,29.77,NW,322,1.0,11.0,73,0.00,,---,0.00,VWS V13.01,2013-07-19 15:11:00,
2013-07-19 10:16:00,75.6,65.5,29.77,WNW,284,3.0,11.0,71,0.00,,---,0.00,VWS V13.01,2013-07-19 15:16:00,
2013-07-19 10:21:00,75.5,65.8,29.77,North,360,2.0,7.0,72,0.00,,---,0.00,VWS V13.01,2013-07-19 15:21:00,
2013-07-19 10:26:00,75.4,65.3,29.77,North,355,2.0,8.0,71,0.00,,---,0.00,VWS V13.01,2013-07-19 15:26:00,
2013-07-19 10:31:00,75.4,66.5,29.77,WNW,288,0.0,8.0,74,0.00,,---,0.00,VWS V13.01,2013-07-19 15:31:00,
2013-07-19 10:36:00,75.3,65.3,29.78,North,360,0.0,9.0,71,0.00,,---,0.00,VWS V13.01,2013-07-19 15:36:00,
2013-07-19 10:41:00,75.2,66.0,29.78,West,276,2.0,9.0,73,0.00,,---,0.00,VWS V13.01,2013-07-19 15:41:00,
2013-07-19 10:46:00,75.3,65.7,29.78,NNW,340,3.0,11.0,72,0.00,,---,0.00,VWS V13.01,2013-07-19 15:46:00,
2013-07-19 10:51:00,75.4,65.8,29.78,WNW,289,1.0,6.0,72,0.00,,---,0.00,VWS V13.01,2013-07-19 15:51:00,
2013-07-19 10:56:00,75.6,66.7,29.78,West,269,0.0,6.0,74,0.00,,---,0.00,VWS V13.01,2013-07-19 15:56:00,
2013-07-19 11:01:00,75.6,64.7,29.78,NNW,337,0.0,7.0,69,0.00,,---,0.00,VWS V13.01,2013-07-19 16:01:00,
2013-07-19 11:06:00,75.8,66.1,29.79,NW,320,4.0,6.0,72,0.00,,---,0.00,VWS V13.01,2013-07-19 16:06:00,
2013-07-19 11:11:00,76.0,65.5,29.79,North,360,7.0,10.0,70,0.00,,---,0.00,VWS V13.01,2013-07-19 16:11:00,
2013-07-19 11:16:00,76.0,65.1,29.79,North,355,5.0,10.0,69,0.00,,---,0.00,VWS V13.01,2013-07-19 16:16:00,
2013-07-19 11:21:00,76.1,65.6,29.79,North,355,3.0,10.0,70,0.00,,---,0.00,VWS V13.01,2013-07-19 16:21:00,
2013-07-19 11:26:00,76.2,65.3,29.79,NNW,346,0.0,12.0,69,0.00,,---,0.00,VWS V13.01,2013-07-19 16:26:00,
2013-07-19 11:31:00,76.4,66.3,29.80,NNW,330,0.0,12.0,71,0.00,,---,0.00,VWS V13.01,2013-07-19 16:31:00,
2013-07-19 11:36:00,76.5,66.0,29.79,NNW,345,3.0,7.0,70,0.00,,---,0.00,VWS V13.01,2013-07-19 16:36:00,
2013-07-19 11:41:00,76.7,64.9,29.80,NW,305,0.0,11.0,67,0.00,,---,0.00,VWS V13.01,2013-07-19 16:41:00,
2013-07-19 11:46:00,76.9,66.0,29.80,North,355,0.0,11.0,69,0.00,,---,0.00,VWS V13.01,2013-07-19 16:46:00,
2013-07-19 11:51:00,77.3,65.1,29.80,NNW,348,4.0,4.0,66,0.00,,---,0.00,VWS V13.01,2013-07-19 16:51:00,
2013-07-19 11:56:00,77.5,65.7,29.80,WNW,290,2.0,4.0,67,0.00,,---,0.00,VWS V13.01,2013-07-19 16:56:00,
2013-07-19 12:01:00,77.5,64.4,29.80,NNW,346,2.0,7.0,64,0.00,,---,0.00,VWS V13.01,2013-07-19 17:01:00,
2013-07-19 12:06:00,77.6,65.8,29.80,North,5,1.0,7.0,67,0.00,,---,0.00,VWS V13.01,2013-07-19 17:06:00,
2013-07-19 12:11:00,77.9,66.1,29.80,WNW,294,0.0,7.0,67,0.00,,---,0.00,VWS V13.01,2013-07-19 17:11:00,
2013-07-19 12:16:00,78.3,64.7,29.80,SSW,213,0.0,7.0,63,0.00,,---,0.00,VWS V13.01,2013-07-19 17:16:00,
2013-07-19 12:21:00,78.4,65.2,29.80,West,280,4.0,5.0,64,0.00,,---,0.00,VWS V13.01,2013-07-19 17:21:00,
2013-07-19 12:26:00,78.5,65.8,29.80,WNW,286,0.0,9.0,65,0.00,,---,0.00,VWS V13.01,2013-07-19 17:26:00,
2013-07-19 12:31:00,78.7,65.1,29.80,South,178,5.0,11.0,63,0.00,,---,0.00,VWS V13.01,2013-07-19 17:31:00,
2013-07-19 12:36:00,78.8,64.7,29.80,NW,321,0.0,4.0,62,0.00,,---,0.00,VWS V13.01,2013-07-19 17:36:00,
2013-07-19 12:41:00,79.1,65.4,29.80,West,265,1.0,6.0,63,0.00,,---,0.00,VWS V13.01,2013-07-19 17:41:00,
2013-07-19 12:46:00,79.2,64.1,29.80,North,350,0.0,6.0,60,0.00,,---,0.00,VWS V13.01,2013-07-19 17:46:00,
2013-07-19 12:51:00,79.3,64.7,29.80,WNW,288,0.0,11.0,61,0.00,,---,0.00,VWS V13.01,2013-07-19 17:51:00,
2013-07-19 12:56:00,79.4,65.3,29.80,West,265,0.0,11.0,62,0.00,,---,0.00,VWS V13.01,2013-07-19 17:56:00,
2013-07-19 13:01:00,79.6,65.0,29.80,NW,321,0.0,11.0,61,0.00,,---,0.00,VWS V13.01,2013-07-19 18:01:00,
2013-07-19 13:06:00,79.7,65.5,29.80,West,265,2.0,9.0,62,0.00,,---,0.00,VWS V13.01,2013-07-19 18:06:00,
2013-07-19 13:11:00,79.9,68.0,29.80,WSW,252,1.0,9.0,67,0.00,,---,0.00,VWS V13.01,2013-07-19 18:11:00,
2013-07-19 13:16:00,80.0,66.3,29.80,WNW,286,0.0,9.0,63,0.00,,---,0.00,VWS V13.01,2013-07-19 18:16:00,
2013-07-19 13:21:00,80.0,65.4,29.80,NW,313,1.0,6.0,61,0.00,,---,0.00,VWS V13.01,2013-07-19 18:21:00,
2013-07-19 13:26:00,80.2,66.5,29.80,NNW,337,2.0,6.0,63,0.00,,---,0.00,VWS V13.01,2013-07-19 18:26:00,
2013-07-19 13:31:00,80.5,65.8,29.80,WSW,244,3.0,8.0,61,0.00,,---,0.00,VWS V13.01,2013-07-19 18:31:00,
2013-07-19 13:36:00,80.5,63.9,29.80,West,261,1.0,14.0,57,0.00,,---,0.00,VWS V13.01,2013-07-19 18:36:00,
2013-07-19 13:41:00,80.4,64.8,29.80,SW,236,0.0,14.0,59,0.00,,---,0.00,VWS V13.01,2013-07-19 18:41:00,
2013-07-19 13:46:00,80.7,66.0,29.80,WNW,283,0.0,14.0,61,0.00,,---,0.00,VWS V13.01,2013-07-19 18:46:00,
2013-07-19 13:51:00,80.9,64.2,29.80,North,355,3.0,5.0,57,0.00,,---,0.00,VWS V13.01,2013-07-19 18:51:00,
2013-07-19 13:56:00,80.9,64.2,29.80,West,267,6.0,14.0,57,0.00,,---,0.00,VWS V13.01,2013-07-19 18:56:00,
2013-07-19 14:01:00,80.8,63.7,29.80,West,261,0.0,14.0,56,0.00,,---,0.00,VWS V13.01,2013-07-19 19:01:00,
2013-07-19 14:06:00,81.0,64.3,29.80,West,269,0.0,8.0,57,0.00,,---,0.00,VWS V13.01,2013-07-19 19:06:00,
2013-07-19 14:11:00,81.2,64.0,29.80,WSW,257,0.0,8.0,56,0.00,,---,0.00,VWS V13.01,2013-07-19 19:11:00,
2013-07-19 14:16:00,81.4,65.7,29.80,SSE,164,0.0,8.0,59,0.00,,---,0.00,VWS V13.01,2013-07-19 19:16:00,
2013-07-19 14:21:00,81.3,64.6,29.80,WNW,282,0.0,5.0,57,0.00,,---,0.00,VWS V13.01,2013-07-19 19:21:00,
2013-07-19 14:26:00,81.1,64.9,29.80,NW,309,1.0,5.0,58,0.00,,---,0.00,VWS V13.01,2013-07-19 19:26:00,
2013-07-19 14:31:00,81.3,66.1,29.80,West,261,0.0,10.0,60,0.00,,---,0.00,VWS V13.01,2013-07-19 19:31:00,
2013-07-19 14:36:00,81.6,64.9,29.80,West,264,10.0,10.0,57,0.00,,---,0.00,VWS V13.01,2013-07-19 19:36:00,
2013-07-19 14:41:00,81.6,64.4,29.80,NW,307,1.0,10.0,56,0.00,,---,0.00,VWS V13.01,2013-07-19 19:41:00,
2013-07-19 14:46:00,81.9,65.2,29.80,NNW,340,0.0,12.0,57,0.00,,---,0.00,VWS V13.01,2013-07-19 19:46:00,
2013-07-19 14:51:00,82.1,64.3,29.80,North,355,0.0,5.0,55,0.00,,---,0.00,VWS V13.01,2013-07-19 19:51:00,
2013-07-19 14:56:00,82.2,63.4,29.80,WSW,250,2.0,5.0,53,0.00,,---,0.00,VWS V13.01,2013-07-19 19:56:00,
2013-07-19 15:01:00,82.1,64.9,29.79,WNW,293,0.0,8.0,56,0.00,,---,0.00,VWS V13.01,2013-07-19 20:01:00,
2013-07-19 15:06:00,82.1,64.3,29.80,West,275,0.0,7.0,55,0.00,,---,0.00,VWS V13.01,2013-07-19 20:06:00,
2013-07-19 15:11:00,82.4,64.6,29.80,NNW,333,1.0,7.0,55,0.00,,---,0.00,VWS V13.01,2013-07-19 20:11:00,
2013-07-19 15:16:00,82.4,64.1,29.80,NW,309,3.0,9.0,54,0.00,,---,0.00,VWS V13.01,2013-07-19 20:16:00,
2013-07-19 15:21:00,82.3,64.0,29.80,NW,316,1.0,5.0,54,0.00,,---,0.00,VWS V13.01,2013-07-19 20:21:00,
2013-07-19 15:26:00,82.1,63.8,29.80,WNW,300,4.0,5.0,54,0.00,,---,0.00,VWS V13.01,2013-07-19 20:26:00,
2013-07-19 15:31:00,82.3,62.9,29.80,NW,323,4.0,7.0,52,0.00,,---,0.00,VWS V13.01,2013-07-19 20:31:00,
2013-07-19 15:36:00,82.3,64.5,29.80,NW,323,0.0,7.0,55,0.00,,---,0.00,VWS V13.01,2013-07-19 20:36:00,
2013-07-19 15:41:00,82.4,63.6,29.80,North,5,3.0,9.0,53,0.00,,---,0.00,VWS V13.01,2013-07-19 20:41:00,
2013-07-19 15:46:00,82.1,64.3,29.80,NNE,15,2.0,9.0,55,0.00,,---,0.00,VWS V13.01,2013-07-19 20:46:00,
2013-07-19 15:51:00,82.0,63.7,29.79,North,360,3.0,7.0,54,0.00,,---,0.00,VWS V13.01,2013-07-19 20:51:00,
2013-07-19 15:56:00,82.2,63.4,29.79,West,274,5.0,7.0,53,0.00,,---,0.00,VWS V13.01,2013-07-19 20:56:00,
2013-07-19 16:01:00,82.4,64.1,29.79,NW,315,0.0,14.0,54,0.00,,---,0.00,VWS V13.01,2013-07-19 21:01:00,
2013-07-19 16:06:00,82.8,63.4,29.79,NW,310,0.0,7.0,52,0.00,,---,0.00,VWS V13.01,2013-07-19 21:06:00,
2013-07-19 16:11:00,82.4,63.6,29.79,West,261,0.0,7.0,53,0.00,,---,0.00,VWS V13.01,2013-07-19 21:11:00,
2013-07-19 16:16:00,81.8,64.1,29.79,North,355,1.0,7.0,55,0.00,,---,0.00,VWS V13.01,2013-07-19 21:16:00,
2013-07-19 16:21:00,82.0,63.7,29.79,WNW,294,0.0,6.0,54,0.00,,---,0.00,VWS V13.01,2013-07-19 21:21:00,
2013-07-19 16:26:00,82.3,63.5,29.79,NNW,345,1.0,6.0,53,0.00,,---,0.00,VWS V13.01,2013-07-19 21:26:00,
2013-07-19 16:31:00,82.5,63.7,29.79,North,360,0.0,6.0,53,0.00,,---,0.00,VWS V13.01,2013-07-19 21:31:00,
2013-07-19 16:36:00,83.0,66.7,29.79,North,355,0.0,4.0,58,0.00,,---,0.00,VWS V13.01,2013-07-19 21:36:00,
2013-07-19 16:41:00,83.4,65.6,29.79,West,275,0.0,7.0,55,0.00,,---,0.00,VWS V13.01,2013-07-19 21:41:00,
2013-07-19 16:46:00,83.5,64.6,29.79,WNW,288,0.0,7.0,53,0.00,,---,0.00,VWS V13.01,2013-07-19 21:46:00,
2013-07-19 16:51:00,83.2,64.3,29.79,WSW,254,0.0,13.0,53,0.00,,---,0.00,VWS V13.01,2013-07-19 21:51:00,
2013-07-19 16:56:00,83.4,65.6,29.79,West,275,0.0,13.0,55,0.00,,---,0.00,VWS V13.01,2013-07-19 21:56:00,
2013-07-19 17:01:00,83.5,65.1,29.79,West,275,6.0,13.0,54,0.00,,---,0.00,VWS V13.01,2013-07-19 22:01:00,
2013-07-19 17:06:00,83.2,64.3,29.79,North,355,0.0,9.0,53,0.00,,---,0.00,VWS V13.01,2013-07-19 22:06:00,
2013-07-19 17:11:00,83.1,64.2,29.79,WNW,302,1.0,9.0,53,0.00,,---,0.00,VWS V13.01,2013-07-19 22:11:00,
2013-07-19 17:16:00,82.9,63.5,29.79,North,355,0.0,13.0,52,0.00,,---,0.00,VWS V13.01,2013-07-19 22:16:00,
2013-07-19 17:21:00,83.0,65.2,29.79,WNW,286,1.0,4.0,55,0.00,,---,0.00,VWS V13.01,2013-07-19 22:21:00,
2013-07-19 17:26:00,82.9,65.1,29.79,NNW,327,0.0,6.0,55,0.00,,---,0.00,VWS V13.01,2013-07-19 22:26:00,
2013-07-19 17:31:00,82.3,63.5,29.79,NNW,329,3.0,6.0,53,0.00,,---,0.00,VWS V13.01,2013-07-19 22:31:00,
2013-07-19 17:36:00,81.5,63.8,29.79,NW,321,3.0,4.0,55,0.00,,---,0.00,VWS V13.01,2013-07-19 22:36:00,
2013-07-19 17:41:00,80.8,66.1,29.79,NW,321,0.0,4.0,61,0.00,,---,0.00,VWS V13.01,2013-07-19 22:41:00,
2013-07-19 17:46:00,80.9,66.2,29.79,West,269,0.0,6.0,61,0.00,,---,0.00,VWS V13.01,2013-07-19 22:46:00,
2013-07-19 17:51:00,81.6,64.9,29.79,WNW,302,0.0,10.0,57,0.00,,---,0.00,VWS V13.01,2013-07-19 22:51:00,
2013-07-19 17:56:00,82.2,65.0,29.79,West,276,0.0,10.0,56,0.00,,---,0.00,VWS V13.01,2013-07-19 22:56:00,
2013-07-19 18:01:00,82.4,63.6,29.79,SSW,195,0.0,10.0,53,0.00,,---,0.00,VWS V13.01,2013-07-19 23:01:00,
2013-07-19 18:06:00,81.9,63.6,29.79,NNW,348,4.0,6.0,54,0.00,,---,0.00,VWS V13.01,2013-07-19 23:06:00,
2013-07-19 18:11:00,81.5,65.3,29.78,WSW,257,0.0,6.0,58,0.00,,---,0.00,VWS V13.01,2013-07-19 23:11:00,
2013-07-19 18:16:00,81.5,64.3,29.78,NNW,345,0.0,6.0,56,0.00,,---,0.00,VWS V13.01,2013-07-19 23:16:00,
2013-07-19 18:21:00,81.2,63.5,29.79,West,265,0.0,7.0,55,0.00,,---,0.00,VWS V13.01,2013-07-19 23:21:00,
2013-07-19 18:26:00,81.1,64.4,29.79,West,269,4.0,7.0,57,0.00,,---,0.00,VWS V13.01,2013-07-19 23:26:00,
2013-07-19 18:31:00,81.0,64.8,29.78,West,270,0.0,7.0,58,0.00,,---,0.00,VWS V13.01,2013-07-19 23:31:00,
2013-07-19 18:36:00,81.0,64.8,29.78,West,270,0.0,0.0,58,0.00,,---,0.00,VWS V13.01,2013-07-19 23:36:00,
2013-07-19 18:41:00,81.4,63.7,29.79,West,264,0.0,5.0,55,0.00,,---,0.00,VWS V13.01,2013-07-19 23:41:00,
2013-07-19 18:46:00,81.6,63.9,29.78,West,264,0.0,6.0,55,0.00,,---,0.00,VWS V13.01,2013-07-19 23:46:00,
2013-07-19 18:51:00,81.2,64.5,29.79,West,266,0.0,4.0,57,0.00,,---,0.00,VWS V13.01,2013-07-19 23:51:00,
2013-07-19 18:56:00,80.5,63.9,29.79,NW,310,0.0,7.0,57,0.00,,---,0.00,VWS V13.01,2013-07-19 23:56:00,
2013-07-19 19:01:00,80.3,64.7,29.79,NW,307,0.0,7.0,59,0.00,,---,0.00,VWS V13.01,2013-07-20 00:01:00,
2013-07-19 19:06:00,80.4,65.3,29.78,NW,308,0.0,3.0,60,0.00,,---,0.00,VWS V13.01,2013-07-20 00:06:00,
2013-07-19 19:11:00,80.6,63.5,29.79,NW,307,0.0,4.0,56,0.00,,---,0.00,VWS V13.01,2013-07-20 00:11:00,
2013-07-19 19:16:00,80.7,64.1,29.79,NNE,33,0.0,4.0,57,0.00,,---,0.00,VWS V13.01,2013-07-20 00:16:00,
2013-07-19 19:21:00,80.6,64.5,29.78,NE,34,0.0,0.0,58,0.00,,---,0.00,VWS V13.01,2013-07-20 00:21:00,
2013-07-19 19:26:00,80.3,64.2,29.78,NE,34,0.0,0.0,58,0.00,,---,0.00,VWS V13.01,2013-07-20 00:26:00,
2013-07-19 19:31:00,79.8,64.2,29.79,NE,34,0.0,0.0,59,0.00,,---,0.00,VWS V13.01,2013-07-20 00:31:00,
2013-07-19 19:36:00,79.2,65.5,29.78,NNE,33,0.0,0.0,63,0.00,,---,0.00,VWS V13.01,2013-07-20 00:36:00,
2013-07-19 19:41:00,78.6,64.5,29.78,NE,34,0.0,1.0,62,0.00,,---,0.00,VWS V13.01,2013-07-20 00:41:00,
2013-07-19 19:46:00,77.9,64.8,29.78,NE,34,0.0,1.0,64,0.00,,---,0.00,VWS V13.01,2013-07-20 00:46:00,
2013-07-19 19:51:00,77.3,64.2,29.78,NE,34,0.0,0.0,64,0.00,,---,0.00,VWS V13.01,2013-07-20 00:51:00,
2013-07-19 19:56:00,76.9,64.7,29.78,NE,34,0.0,0.0,66,0.00,,---,0.00,VWS V13.01,2013-07-20 00:56:00,
2013-07-19 20:02:00,76.4,64.6,29.78,NE,34,0.0,0.0,67,0.00,,---,0.00,VWS V13.01,2013-07-20 01:02:00,
2013-07-19 20:07:00,76.0,65.5,29.79,NE,34,0.0,0.0,70,0.00,,---,0.00,VWS V13.01,2013-07-20 01:07:00,
2013-07-19 20:12:00,75.5,65.4,29.79,NE,34,0.0,0.0,71,0.00,,---,0.00,VWS V13.01,2013-07-20 01:12:00,
2013-07-19 20:17:00,75.1,66.2,29.79,NNE,33,0.0,0.0,74,0.00,,---,0.00,VWS V13.01,2013-07-20 01:17:00,
2013-07-19 20:22:00,74.5,65.3,29.79,NNE,33,0.0,0.0,73,0.00,,---,0.00,VWS V13.01,2013-07-20 01:22:00,
2013-07-19 20:27:00,74.1,65.7,29.79,NNE,33,0.0,0.0,75,0.00,,---,0.00,VWS V13.01,2013-07-20 01:27:00,
2013-07-19 20:32:00,73.6,65.2,29.79,NE,34,0.0,0.0,75,0.00,,---,0.00,VWS V13.01,2013-07-20 01:32:00,
2013-07-19 20:36:00,73.2,64.4,29.79,NE,34,0.0,0.0,74,0.00,,---,0.00,VWS V13.01,2013-07-20 01:36:00,
2013-07-19 20:41:00,72.9,64.9,29.79,NE,34,0.0,0.0,76,0.00,,---,0.00,VWS V13.01,2013-07-20 01:41:00,
2013-07-19 20:47:00,72.5,64.1,29.79,NNE,33,0.0,0.0,75,0.00,,---,0.00,VWS V13.01,2013-07-20 01:47:00,
2013-07-19 20:52:00,72.2,63.8,29.79,NE,34,0.0,0.0,75,0.00,,---,0.00,VWS V13.01,2013-07-20 01:52:00,
2013-07-19 20:57:00,72.0,63.7,29.80,NE,34,0.0,0.0,75,0.00,,---,0.00,VWS V13.01,2013-07-20 01:57:00,
2013-07-19 21:02:00,71.7,63.4,29.79,NE,34,0.0,0.0,75,0.00,,---,0.00,VWS V13.01,2013-07-20 02:02:00,
2013-07-19 21:07:00,71.4,63.8,29.79,NE,34,0.0,0.0,77,0.00,,---,0.00,VWS V13.01,2013-07-20 02:07:00,
2013-07-19 21:12:00,71.2,63.6,29.79,NE,34,0.0,0.0,77,0.00,,---,0.00,VWS V13.01,2013-07-20 02:12:00,
2013-07-19 21:17:00,70.8,63.6,29.79,NNE,33,0.0,0.0,78,0.00,,---,0.00,VWS V13.01,2013-07-20 02:17:00,
2013-07-19 21:22:00,70.6,63.4,29.79,NE,34,0.0,0.0,78,0.00,,---,0.00,VWS V13.01,2013-07-20 02:22:00,
2013-07-19 21:27:00,70.5,63.3,29.80,NNE,33,0.0,1.0,78,0.00,,---,0.00,VWS V13.01,2013-07-20 02:27:00,
2013-07-19 21:32:00,70.4,63.6,29.80,NNE,33,0.0,1.0,79,0.00,,---,0.00,VWS V13.01,2013-07-20 02:32:00,
2013-07-19 21:37:00,70.3,63.5,29.81,NE,34,0.0,0.0,79,0.00,,---,0.00,VWS V13.01,2013-07-20 02:37:00,
2013-07-19 21:42:00,70.3,63.8,29.81,NE,34,0.0,0.0,80,0.00,,---,0.00,VWS V13.01,2013-07-20 02:42:00,
2013-07-19 21:47:00,70.1,63.7,29.81,NE,34,0.0,0.0,80,0.00,,---,0.00,VWS V13.01,2013-07-20 02:47:00,
2013-07-19 21:52:00,70.0,63.5,29.81,NNE,33,0.0,2.0,80,0.00,,---,0.00,VWS V13.01,2013-07-20 02:52:00,
2013-07-19 21:57:00,70.0,63.9,29.82,NE,34,0.0,2.0,81,0.00,,---,0.00,VWS V13.01,2013-07-20 02:57:00,
2013-07-19 22:02:00,69.9,63.8,29.82,NNE,33,0.0,2.0,81,0.00,,---,0.00,VWS V13.01,2013-07-20 03:02:00,
2013-07-19 22:07:00,69.9,63.8,29.82,NE,34,0.0,0.0,81,0.00,,---,0.00,VWS V13.01,2013-07-20 03:07:00,
2013-07-19 22:12:00,69.9,63.8,29.82,NE,34,0.0,2.0,81,0.00,,---,0.00,VWS V13.01,2013-07-20 03:12:00,
2013-07-19 22:17:00,69.9,64.2,29.82,NE,34,0.0,2.0,82,0.00,,---,0.00,VWS V13.01,2013-07-20 03:17:00,
2013-07-19 22:22:00,69.9,64.2,29.82,NE,34,0.0,0.0,82,0.00,,---,0.00,VWS V13.01,2013-07-20 03:22:00,
2013-07-19 22:27:00,69.9,64.2,29.82,NE,34,0.0,0.0,82,0.00,,---,0.00,VWS V13.01,2013-07-20 03:27:00,
2013-07-19 22:32:00,70.0,64.3,29.83,NE,34,0.0,2.0,82,0.00,,---,0.00,VWS V13.01,2013-07-20 03:32:00,
2013-07-19 22:37:00,70.0,64.3,29.83,NNE,33,0.0,2.0,82,0.00,,---,0.00,VWS V13.01,2013-07-20 03:37:00,
2013-07-19 22:42:00,70.1,64.4,29.83,NNW,327,0.0,5.0,82,0.00,,---,0.00,VWS V13.01,2013-07-20 03:42:00,
2013-07-19 22:47:00,70.2,64.4,29.83,NNW,327,0.0,5.0,82,0.00,,---,0.00,VWS V13.01,2013-07-20 03:47:00,
2013-07-19 22:52:00,70.3,64.6,29.83,NNW,327,0.0,0.0,82,0.00,,---,0.00,VWS V13.01,2013-07-20 03:52:00,
2013-07-19 22:57:00,70.3,64.6,29.83,NNW,327,0.0,0.0,82,0.00,,---,0.00,VWS V13.01,2013-07-20 03:57:00,
2013-07-19 23:01:00,70.3,64.6,29.83,NNW,327,0.0,0.0,82,0.00,,---,0.00,VWS V13.01,2013-07-20 04:01:00,
2013-07-19 23:06:00,70.4,64.7,29.83,NNW,327,0.0,1.0,82,0.00,,---,0.00,VWS V13.01,2013-07-20 04:06:00,
2013-07-19 23:11:00,70.4,65.3,29.84,West,269,8.0,8.0,84,0.00,,---,0.00,VWS V13.01,2013-07-20 04:11:00,
2013-07-19 23:16:00,71.1,64.3,29.85,WSW,246,3.0,12.0,79,0.00,,---,0.00,VWS V13.01,2013-07-20 04:16:00,
2013-07-19 23:21:00,71.4,64.9,29.85,WSW,253,6.0,12.0,80,0.00,,---,0.00,VWS V13.01,2013-07-20 04:21:00,
2013-07-19 23:26:00,70.9,64.8,29.83,NW,312,0.0,12.0,81,0.00,,---,0.01,VWS V13.01,2013-07-20 04:26:00,
2013-07-19 23:31:00,70.3,64.9,29.83,NW,312,0.0,12.0,83,0.01,,---,0.01,VWS V13.01,2013-07-20 04:31:00,
2013-07-19 23:36:00,69.6,64.6,29.84,NW,312,0.0,3.0,84,0.02,,---,0.02,VWS V13.01,2013-07-20 04:36:00,
2013-07-19 23:41:00,68.7,64.3,29.83,WNW,283,0.0,5.0,86,0.02,,---,0.02,VWS V13.01,2013-07-20 04:41:00,
2013-07-19 23:46:00,68.0,64.3,29.83,WNW,284,0.0,5.0,88,0.02,,---,0.02,VWS V13.01,2013-07-20 04:46:00,
2013-07-19 23:51:00,67.5,63.8,29.82,WNW,284,0.0,0.0,88,0.02,,---,0.02,VWS V13.01,2013-07-20 04:51:00,
2013-07-19 23:56:00,67.0,64.0,29.82,WNW,283,0.0,0.0,90,0.03,,---,0.03,VWS V13.01,2013-07-20 04:56:00,